Tirstrup, Denmark

2:58 AM CEST on April 27, 2017 (GMT +0200)
Aarhus

Weather History for EKAH - November, 2012

Change the Weather History Date:

Sunday, November 25, 2012

  Actual Average Record
Temperature  
Mean Temperature 42 °F -  
Max Temperature 46 °F 40 °F 55 °F (2006)
Min Temperature 38 °F 34 °F 23 °F (2013)
Degree Days  
Heating Degree Days 23    
Moisture  
Dew Point 40 °F    
Average Humidity 86    
Maximum Humidity 93    
Minimum Humidity 72    
Precipitation  
Precipitation 0.63 in - - ()
Sea Level Pressure  
Sea Level Pressure 29.73 in    
Wind  
Wind Speed 11 mph ()    
Max Wind Speed 21 mph    
Max Gust Speed 39 mph    
Visibility 5.7 miles    
Events Rain    
Averages and records for this station are not official NWS values.
T = Trace of Precipitation, MM = Missing Value Source: Averaged Metar Reports

Daily Weather History Graph

Daily Weather History Graph

Search for Another Location

Airport or City:

Trip Planner

Search our weather history database for the weather conditions in past years. The results will help you decide how hot, cold, wet, or windy it might be!

Date:

Astronomy

Nov. 25, 2012 Rise Set
Actual Time 8:16 AM CET 3:52 PM CET
Civil Twilight 7:31 AM CET 4:37 PM CET
Nautical Twilight 6:43 AM CET 5:25 PM CET
Astronomical Twilight 5:58 AM CET 6:10 PM CET
Moon 2:22 PM CET (11/25) 4:48 AM CET (11/25)
Length of Visible Light 9h 06m
Length of Day
7h 36m
Waxing Gibbous, 91% of the Moon is Illuminated
Nov 25
Waxing Gibbous
Nov 28
Full
Dec 6
Last Quarter
Dec 13
New
Dec 20
First Quarter

Hourly Weather History & Observations

Time (CET) Temp. Windchill Dew Point Humidity Pressure Visibility Wind Dir Wind Speed Gust Speed Precip Events Conditions
12:20 AM 42.8 °F 40.1 °F 39.2 °F 87% 30.09 in 6.2 mi SSE 4.6 mph - N/A   Overcast
12:50 AM 41.0 °F 36.4 °F 37.4 °F 87% 30.09 in 6.2 mi SE 6.9 mph - N/A   Overcast
1:00 AM 41 °F - 37 °F 80% 30.10 in 13 mi SE 6.9 mph - -  
1:20 AM 41.0 °F 37.1 °F 37.4 °F 87% 30.06 in 6.2 mi SE 5.8 mph - N/A   Overcast
1:50 AM 41.0 °F 34.7 °F 35.6 °F 81% 30.06 in 6.2 mi ESE 10.4 mph - N/A   Overcast
2:20 AM 39.2 °F 33.6 °F 35.6 °F 87% 30.06 in 6.2 mi ESE 8.1 mph - N/A   Overcast
2:50 AM 39.2 °F 33.6 °F 35.6 °F 87% 30.04 in 6.2 mi SE 8.1 mph - N/A   Overcast
3:20 AM 41.0 °F 35.2 °F 35.6 °F 81% 30.04 in 6.2 mi SE 9.2 mph - N/A   Mostly Cloudy
3:50 AM 41.0 °F 34.7 °F 35.6 °F 81% 30.01 in 6.2 mi SE 10.4 mph - N/A   Overcast
4:00 AM 41 °F - 36 °F 77% 30.01 in 22 mi SE 11.5 mph - -  
4:20 AM 41.0 °F 34.3 °F 35.6 °F 81% 29.98 in 6.2 mi SE 11.5 mph - N/A   Mostly Cloudy
4:50 AM 41.0 °F 34.3 °F 37.4 °F 87% 29.98 in 6.2 mi SE 11.5 mph - N/A   Mostly Cloudy
5:20 AM 42.8 °F 36.6 °F 37.4 °F 81% 29.95 in 6.2 mi SE 11.5 mph - N/A   Mostly Cloudy
5:50 AM 42.8 °F 36.6 °F 37.4 °F 81% 29.95 in 6.2 mi SE 11.5 mph - N/A   Mostly Cloudy
6:20 AM 42.8 °F 36.2 °F 37.4 °F 81% 29.92 in 6.2 mi ESE 12.7 mph 25.3 mph N/A   Mostly Cloudy
6:50 AM 42.8 °F 35.1 °F 37.4 °F 81% 29.92 in 6.2 mi ESE 16.1 mph 27.6 mph N/A   Mostly Cloudy
7:00 AM 43 °F - 37 °F 72% 29.91 in 17 mi ESE 15.0 mph - -  
7:20 AM 42.8 °F 35.1 °F 37.4 °F 81% 29.89 in 6.2 mi ESE 16.1 mph - N/A   Mostly Cloudy
7:50 AM 42.8 °F 35.1 °F 37.4 °F 81% 29.89 in 6.2 mi ESE 16.1 mph - N/A   Mostly Cloudy
8:20 AM 42.8 °F 35.1 °F 37.4 °F 81% 29.86 in 6.2 mi ESE 16.1 mph 28.8 mph N/A   Overcast
8:50 AM 42.8 °F 34.5 °F 37.4 °F 81% 29.83 in 6.2 mi ESE 18.4 mph - N/A   Drizzle
9:20 AM 42.8 °F 34.5 °F 39.2 °F 87% 29.80 in 6.2 mi ESE 18.4 mph 29.9 mph N/A Rain Light Rain
9:50 AM 42.8 °F 34.3 °F 39.2 °F 87% 29.80 in 6.2 mi ESE 19.6 mph 31.1 mph N/A Rain Light Rain
10:00 AM 43 °F - 39 °F 79% 29.80 in 10 mi ESE 19.6 mph - - Rain Light Rain
10:20 AM 42.8 °F 34.5 °F 39.2 °F 87% 29.77 in 6.2 mi ESE 18.4 mph 32.2 mph N/A Rain Light Rain
10:50 AM 42.8 °F 34.0 °F 39.2 °F 87% 29.74 in 6.2 mi ESE 20.7 mph 39.1 mph N/A Rain Light Rain Showers
11:20 AM 42.8 °F 34.5 °F 39.2 °F 87% 29.71 in 5.0 mi ESE 18.4 mph 32.2 mph N/A Rain Light Rain Showers
11:50 AM 42.8 °F 34.5 °F 39.2 °F 87% 29.68 in 6.2 mi ESE 18.4 mph 31.1 mph N/A Rain Light Rain
12:20 PM 44.6 °F 36.4 °F 41.0 °F 87% 29.65 in 4.3 mi ESE 20.7 mph 38.0 mph N/A Rain Light Rain Showers
12:50 PM 44.6 °F 36.9 °F 41.0 °F 87% 29.65 in 3.1 mi SE 18.4 mph 32.2 mph N/A Rain Rain
1:00 PM 44 °F - 41 °F 86% 29.65 in 3 mi ESE 17.3 mph - - Rain Rain
1:20 PM 44.6 °F 36.9 °F 41.0 °F 87% 29.62 in 3.1 mi SE 18.4 mph 32.2 mph N/A Rain Rain
1:50 PM 44.6 °F 37.4 °F 42.8 °F 93% 29.59 in 2.5 mi SE 16.1 mph 31.1 mph N/A Rain Rain
2:20 PM 44.6 °F 36.9 °F 42.8 °F 93% 29.59 in - SE 18.4 mph 35.7 mph N/A Rain Rain
2:50 PM 44.6 °F 38.4 °F 42.8 °F 93% 29.59 in 3.1 mi SE 12.7 mph 26.5 mph N/A Rain Rain
3:20 PM 44.6 °F 38.4 °F 42.8 °F 93% 29.56 in 3.1 mi SE 12.7 mph - N/A Rain Rain
3:50 PM 44.6 °F 38.4 °F 42.8 °F 93% 29.56 in 2.8 mi SE 12.7 mph - N/A Rain Light Rain
4:00 PM 45 °F - 43 °F 89% 29.57 in 2 mi SSE 9.2 mph - - Rain Heavy Drizzle
4:20 PM 44.6 °F 40.7 °F 42.8 °F 93% 29.56 in 3.7 mi South 6.9 mph - N/A   Drizzle
4:50 PM 46.4 °F 42.4 °F 44.6 °F 93% 29.56 in - South 8.1 mph - N/A   Drizzle
5:20 PM 46.4 °F 42.9 °F 44.6 °F 93% 29.53 in - SSE 6.9 mph - N/A   Mostly Cloudy
5:50 PM 46.4 °F 42.9 °F 44.6 °F 93% 29.53 in 5.0 mi South 6.9 mph - N/A   Mostly Cloudy
6:20 PM 46.4 °F 41.1 °F 41.0 °F 81% 29.53 in 6.2 mi SSW 11.5 mph 25.3 mph N/A   Mostly Cloudy
6:50 PM 46.4 °F 42.4 °F 41.0 °F 81% 29.53 in 6.2 mi South 8.1 mph 19.6 mph N/A Rain Light Rain Showers
7:00 PM 46 °F - 41 °F 77% 29.55 in 8 mi South 8.1 mph - - Rain Light Rain Showers
7:20 PM 44.6 °F 38.8 °F 41.0 °F 87% 29.53 in 6.2 mi South 11.5 mph 23.0 mph N/A   Drizzle
7:50 PM 44.6 °F 39.2 °F 41.0 °F 87% 29.50 in 6.2 mi South 10.4 mph 21.9 mph N/A   Drizzle
8:20 PM 44.6 °F 38.8 °F 41.0 °F 87% 29.50 in 6.2 mi South 11.5 mph - N/A Rain Light Rain
8:50 PM 44.6 °F 38.4 °F 41.0 °F 87% 29.50 in 6.2 mi South 12.7 mph 27.6 mph N/A Rain Light Rain
9:20 PM 44.6 °F 38.1 °F 41.0 °F 87% 29.47 in 6.2 mi SSE 13.8 mph 26.5 mph N/A Rain Light Rain
9:50 PM 44.6 °F 38.1 °F 41.0 °F 87% 29.47 in 3.7 mi SSE 13.8 mph - N/A Rain Rain
10:00 PM 44 °F - 41 °F 87% 29.47 in 3 mi SSE 13.8 mph - - Rain Light Rain
10:20 PM 44.6 °F 37.2 °F 42.8 °F 93% 29.44 in 3.1 mi SSE 17.3 mph 29.9 mph N/A Rain Light Rain
10:50 PM 44.6 °F 38.8 °F 42.8 °F 93% 29.44 in 4.3 mi South 11.5 mph 23.0 mph N/A Rain Light Rain
11:20 PM 46.4 °F 41.1 °F 42.8 °F 87% 29.42 in 5.0 mi South 11.5 mph 24.2 mph N/A   Light Drizzle
11:50 PM 46.4 °F 40.4 °F 42.8 °F 87% 29.42 in 2.8 mi South 13.8 mph 28.8 mph N/A Rain Light Rain Showers